Billings, MT

8:21 AM MDT on August 29, 2015 (GMT -0600)
South of Castle Rock Park | | Change Station
CLOSE
Current Station
Personal Weather Station
Location: Billings, MT
Elevation: 3297 ft
Nearby Weather Stations
Active Advisory: Fire Weather Warning

Elev 3297 ft 45.82 °N, 108.50 °W | Updated 3 seconds ago

Mostly Cloudy
Mostly Cloudy
64.8 °F
Feels Like 64.8 °F
N
0.0
Wind Variable Wind from WNW
Gusts 1.6 mph

Today
High -- | Low -- °F
--% Chance of Precip.
Yesterday
High -- | Low -- °F
Precip. -- in
6:31 AM 7:57 PM
Full, 100% visible
Pressure 29.91 in
Visibility 10.0 miles
Clouds Few 11000 ft
Scattered Clouds 14000 ft
Mostly Cloudy 18000 ft
Dew Point 49 °F
Humidity 56%
Rainfall 0.00 in
Snow Depth Not available.
UV 0 out of 12
Pollen 9.50 out of 12
Air Quality Not available.
Flu Activity Not available.
METAR KBIL 291353Z 23008KT 10SM FEW110 SCT140 BKN180 20/06 A3001 RMK AO2 SLP127 HZ ALQDS T02000056
Pressure 29.91 in
Visibility 10.0 miles
Clouds Few 11000 ft
Scattered Clouds 14000 ft
Mostly Cloudy 18000 ft
Dew Point 49 °F
Humidity 56%
Rainfall 0.00 in
Snow Depth Not available.
UV 0 out of 12
Pollen 9.50 out of 12
Air Quality Not available.
Flu Activity Not available.
METAR KBIL 291353Z 23008KT 10SM FEW110 SCT140 BKN180 20/06 A3001 RMK AO2 SLP127 HZ ALQDS T02000056

10-Day Weather Forecast

×

Almanac

Astronomy

Aug. 29, 2015 Rise Set
Actual Time
Civil Twilight
Nautical Twilight
Astronomical Twilight
Moon
Length of Visible Light
Length of Day
Tomorrow will be .
, % of the Moon is Illuminated

Today's Extremes

State Highs State Lows

Community

WunderPhotos

Upload Photos

1,850,706 photos uploaded!

WunderBlogs® & News

Nearby

Air Quality

  Air Quality AQ Index Pollutant
Not available.

Snow Depth

Station Depth Elevation

Earthquake Activity

City Distance Mag. Time & Date
Minimum magnitude displayed is 2.5.

Coastal Water Temperatures

Place Temperature

Stations

Nearby Weather Stations

Station Location Temp. Windchill Dew Point Humidity Wind Precip. Elev Updated Type
                   
Fire Weather Warning
Statement as of 3:31 AM MDT on August 29, 2015

... Red flag warning remains in effect from noon today to 9 PM MDT
this evening...

* impacts: low humidities... hot temperatures... and strong gusty
winds will create critical fire weather conditions.

* Affected area:
   in south central Mt... fire weather zones 123... 124... 125... 126...
   127 and 128.

* Counties affected:
   in central Mt... Golden Valley... Musselshell... Wheatland.
   In south central Mt... Carbon... park... Stillwater... Sweet Grass
                         Yellowstone.
   In southwest Mt... Gallatin.

* Wind: southwest 10 to 20 mph with gusts 25 to 35 mph.

* Humidity: 10 to 15 percent.

* Temperatures: in the 90s.

Precautionary/preparedness actions...

Be very careful with any open flames. Check with local officials
before conducting any burning.